Santander Airport, Spain

12:57 AM CEST on August 30, 2016 (GMT +0200)
Santander Airport

Weather History for LEXJ - November, 2012

Change the Weather History Date:

Monday, November 26, 2012

  Actual Average Record
Temperature  
Mean Temperature 50 °F -  
Max Temperature 55 °F 54 °F 62 °F (2004)
Min Temperature 44 °F 44 °F 37 °F (2005)
Degree Days  
Heating Degree Days 14    
Moisture  
Dew Point 42 °F    
Average Humidity 73    
Maximum Humidity 93    
Minimum Humidity 62    
Precipitation  
Precipitation 0.00 in - - ()
Sea Level Pressure  
Sea Level Pressure 29.94 in    
Wind  
Wind Speed 11 mph ()    
Max Wind Speed 24 mph    
Max Gust Speed 36 mph    
Visibility 5.9 miles    
Events Rain    
Averages and records for this station are not official NWS values.
T = Trace of Precipitation, MM = Missing Value Source: Averaged Metar Reports

Daily Weather History Graph

Daily Weather History Graph

Search for Another Location

Airport or City:

Trip Planner

Search our weather history database for the weather conditions in past years. The results will help you decide how hot, cold, wet, or windy it might be!

Date:

Astronomy

Nov. 26, 2012 Rise Set
Actual Time 8:22 AM CET 5:42 PM CET
Civil Twilight 7:51 AM CET 6:14 PM CET
Nautical Twilight 7:15 AM CET 6:49 PM CET
Astronomical Twilight 6:41 AM CET 7:23 PM CET
Moon 4:27 PM CET (11/26) 6:17 AM CET (11/26)
Length of Visible Light 10h 23m
Length of Day
9h 19m
Waxing Gibbous, 96% of the Moon is Illuminated
Nov 26
Waxing Gibbous
Nov 28
Full
Dec 6
Last Quarter
Dec 13
New
Dec 20
First Quarter

Hourly Weather History & Observations

Time (CET) Temp. Windchill Dew Point Humidity Pressure Visibility Wind Dir Wind Speed Gust Speed Precip Events Conditions
5:30 AM 51.8 °F - 44.6 °F 76% 29.92 in 6.2 mi SW 8.1 mph - N/A   Mostly Cloudy
6:00 AM 51.8 °F - 44.6 °F 76% 29.92 in 6.2 mi SW 6.9 mph - N/A   Scattered Clouds
6:30 AM 51.8 °F - 42.8 °F 71% 29.92 in 6.2 mi SSW 6.9 mph - N/A   Mostly Cloudy
7:00 AM 51.8 °F - 42.8 °F 71% 29.92 in 6.2 mi SW 5.8 mph - N/A   Scattered Clouds
7:30 AM 51.8 °F - 42.8 °F 71% 29.92 in 6.2 mi SW 6.9 mph - N/A   Scattered Clouds
8:00 AM 51.8 °F - 41.0 °F 67% 29.92 in 6.2 mi SW 6.9 mph - N/A   Partly Cloudy
8:30 AM 50.0 °F - 41.0 °F 71% 29.95 in 6.2 mi SW 4.6 mph - N/A   Partly Cloudy
9:00 AM 51.8 °F - 41.0 °F 67% 29.95 in 6.2 mi SW 6.9 mph - N/A   Partly Cloudy
9:30 AM 51.8 °F - 41.0 °F 67% 29.95 in 6.2 mi SW 5.8 mph - N/A   Scattered Clouds
10:00 AM 51.8 °F - 41.0 °F 67% 29.95 in 6.2 mi SW 4.6 mph - N/A   Scattered Clouds
10:30 AM 51.8 °F - 46.4 °F 82% 29.95 in 6.2 mi WNW 12.7 mph - N/A   Scattered Clouds
11:00 AM 53.6 °F - 44.6 °F 72% 29.95 in 6.2 mi WNW 18.4 mph - N/A   Scattered Clouds
11:30 AM 53.6 °F - 42.8 °F 67% 29.95 in 6.2 mi West 17.3 mph - N/A   Scattered Clouds
12:00 PM 51.8 °F - 42.8 °F 71% 29.95 in 6.2 mi WNW 24.2 mph 35.7 mph N/A   Scattered Clouds
12:30 PM 53.6 °F - 44.6 °F 72% 29.95 in 6.2 mi WNW 21.9 mph - N/A   Scattered Clouds
1:00 PM 51.8 °F - 42.8 °F 71% 29.95 in 6.2 mi NW 18.4 mph - N/A Rain Light Rain Showers
1:30 PM 51.8 °F - 44.6 °F 76% 29.95 in 6.2 mi WNW 11.5 mph - N/A   Scattered Clouds
2:00 PM 53.6 °F - 41.0 °F 62% 29.92 in 6.2 mi West 18.4 mph - N/A   Mostly Cloudy
2:30 PM 55.4 °F - 42.8 °F 63% 29.92 in 6.2 mi West 21.9 mph - N/A   Scattered Clouds
3:00 PM 53.6 °F - 41.0 °F 62% 29.92 in 6.2 mi West 20.7 mph - N/A   Scattered Clouds
3:30 PM 51.8 °F - 42.8 °F 71% 29.92 in 6.2 mi West 19.6 mph - N/A   Scattered Clouds
4:00 PM 51.8 °F - 42.8 °F 71% 29.92 in 6.2 mi West 23.0 mph - N/A   Scattered Clouds
4:30 PM 51.8 °F - 42.8 °F 71% 29.92 in 6.2 mi West 19.6 mph - N/A   Scattered Clouds
5:00 PM 51.8 °F - 41.0 °F 67% 29.92 in 6.2 mi WNW 18.4 mph - N/A   Scattered Clouds
5:30 PM 50.0 °F - 41.0 °F 71% 29.92 in 6.2 mi West 18.4 mph - N/A   Scattered Clouds
6:00 PM 50.0 °F - 41.0 °F 71% 29.92 in 6.2 mi West 16.1 mph - N/A   Scattered Clouds
6:30 PM 50.0 °F - 41.0 °F 71% 29.92 in 6.2 mi West 15.0 mph - N/A   Scattered Clouds
7:00 PM 50.0 °F - 41.0 °F 71% 29.92 in 6.2 mi West 16.1 mph - N/A   Scattered Clouds
7:30 PM 50.0 °F - 41.0 °F 71% 29.92 in 6.2 mi WNW 19.6 mph - N/A   Mostly Cloudy
8:00 PM 48.2 °F - 44.6 °F 87% 29.95 in 4.3 mi West 20.7 mph - N/A Rain Rain Showers
8:30 PM 48.2 °F - 42.8 °F 82% 29.95 in 6.2 mi West 17.3 mph - N/A Rain Light Rain Showers
9:00 PM 46.4 °F 40.7 °F 42.8 °F 87% 29.95 in 6.2 mi WSW 12.7 mph - N/A   Mostly Cloudy
9:30 PM 46.4 °F 41.5 °F 41.0 °F 81% 29.95 in 6.2 mi SW 10.4 mph - N/A   Scattered Clouds
9:47 PM 46.4 °F 41.1 °F 41.0 °F 81% 29.95 in 3.1 mi WSW 11.5 mph - N/A Rain Rain Showers
10:00 PM 46.4 °F 41.1 °F 42.8 °F 87% 29.95 in 5.0 mi WSW 11.5 mph - N/A Rain Light Rain Showers
10:30 PM 46.4 °F 41.5 °F 41.0 °F 81% 29.95 in 5.0 mi WSW 10.4 mph - N/A Rain Light Rain Showers
11:00 PM 44.6 °F 41.4 °F 42.8 °F 93% 29.95 in 4.3 mi SW 5.8 mph - N/A Rain Light Rain Showers